Lid_Strength_Index
2 2 2 2 3 3 3 3 4 4 6 7 7 7 6 5 3 4 6 5 7 10 10 9 8 11 12 12 15 17 16 17 17 17 17 17 18 20 20 22 22 22 23 26 28 28 23 17 18 18 15 16 17 17
1 2 2 2 3 3 3 3 4 4 4 6 6 6 6 5 4 4 7 5 4 8 11 9 9 9 7 8 13 14 13 16 15 16 16 16 18 25 23 22 21 20 19 22 21 20 17 16 16 16 16 15 16 16
0 1 1 2 3 3 3 3 4 4 4 5 6 6 5 5 4 5 7 5 6 11 11 11 11 8 8 8 8 14 14 13 14 12 15 15 16 19 22 22 22 21 19 21 20 16 17 17 15 16 16 16 15 15
0 1 1 1 2 2 3 4 4 4 5 5 5 5 5 3 3 5 7 6 6 10 14 13 10 10 9 9 8 8 10 12 12 12 14 15 15 16 18 18 18 19 18 21 21 17 17 16 16 15 15 16 15 15
-0 0 1 1 1 2 2 3 4 5 5 5 5 5 4 3 3 5 6 6 5 8 13 13 13 12 11 10 9 9 10 12 14 15 15 15 15 16 18 18 20 19 19 18 18 14 13 12 14 15 16 15 15 15
-0 -0 0 1 2 2 2 3 4 4 5 5 5 4 4 3 3 6 11 7 5 5 12 14 13 14 12 10 10 9 10 12 13 14 15 14 14 14 16 17 15 17 17 15 14 15 15 16 18 17 15 15 15 15
-1 -1 -0 1 1 2 2 3 3 4 5 5 4 4 4 3 4 8 11 8 4 5 11 13 13 13 13 12 13 13 13 14 13 14 14 14 15 14 15 14 16 16 14 14 15 16 15 16 14 16 17 18 17 17
-1 -1 -0 0 1 2 2 2 3 3 4 4 4 4 4 3 4 7 5 3 2 7 10 12 15 15 12 13 14 13 14 14 13 14 14 15 16 15 16 14 13 14 15 16 15 15 13 16 17 19 20 20 19 17
-1 -1 -1 0 1 2 2 2 2 3 3 3 4 4 4 6 9 8 3 3 4 6 9 11 17 17 13 13 13 13 13 15 14 14 14 14 16 16 15 15 14 13 14 13 13 14 15 16 14 18 19 21 18 16
-1 -1 -1 -1 1 2 2 2 2 2 3 3 5 8 11 9 5 4 7 8 8 9 10 12 17 15 13 14 14 13 13 13 16 15 13 14 14 16 21 22 21 21 21 18 18 16 19 17 14 14 16 16 16 16
-0 -0 -0 -0 1 2 2 2 2 3 3 6 9 10 8 4 7 8 10 11 10 12 12 14 14 14 12 13 14 12 14 13 16 17 14 16 17 20 24 23 23 23 23 23 22 19 18 17 16 15 15 15 15 17
-0 -1 -1 -1 -0 1 2 2 2 5 6 6 7 6 7 9 10 12 16 12 12 16 16 13 12 13 12 11 11 12 13 13 16 12 14 19 22 26 27 27 26 26 26 25 25 25 24 22 19 17 17 16 16 15
-1 -1 -1 -1 -1 0 1 2 2 2 3 6 8 10 13 15 16 16 21 16 15 17 13 12 12 11 12 11 11 12 13 14 11 14 15 23 24 28 29 29 29 27 26 26 26 26 25 25 24 22 21 19 19 17
-1 -1 -1 -1 -1 -0 0 1 1 2 5 8 10 14 17 18 16 17 17 17 14 17 17 12 12 12 12 12 12 13 13 14 15 18 21 21 26 30 31 31 31 30 30 28 27 26 27 27 26 25 27 27 25 22
-1 -0 -0 -1 -1 -1 -1 -0 0 3 6 10 13 16 20 21 19 21 21 18 12 12 11 11 12 12 15 15 12 16 19 19 19 21 22 24 27 30 32 32 32 31 31 30 29 28 28 27 27 27 27 28 27 25
0 1 3 -0 -1 -1 -1 1 3 5 9 12 16 19 20 17 14 14 13 14 11 12 14 11 12 13 15 14 15 18 18 20 20 24 24 25 29 31 31 32 32 32 32 31 29 29 28 28 28 29 28 28 27 27
1 9 1 -0 -1 -0 1 5 7 10 11 12 14 19 20 20 16 19 16 16 12 14 13 14 15 17 15 17 18 16 18 19 22 23 25 27 28 28 28 28 28 29 30 32 31 29 29 29 28 28 28 28 28 27
9 3 1 -0 2 3 9 10 13 13 14 17 17 16 17 19 17 13 11 12 13 14 16 16 14 17 18 19 18 18 23 24 24 25 27 28 27 27 27 28 29 28 28 28 30 32 31 29 29 29 29 28 28 28
5 2 -0 1 2 7 10 14 14 18 19 17 17 16 14 13 13 13 14 15 20 18 16 18 19 20 20 24 22 25 26 27 26 27 27 27 27 31 31 31 31 30 28 27 27 27 27 27 28 29 29 28 28 28
-0 1 2 3 5 11 12 14 17 16 19 19 18 20 17 19 16 22 22 24 24 22 19 21 25 32 29 30 29 28 28 28 31 30 29 28 28 29 30 30 30 29 28 28 28 26 26 26 25 26 27 27 29 28
6 5 6 11 17 18 21 24 20 22 18 20 20 20 19 22 25 28 29 28 25 34 30 36 35 35 35 35 34 34 31 30 31 33 33 33 29 30 31 29 29 28 29 28 29 28 28 27 27 26 26 25 25 25
15 7 16 14 18 21 22 26 22 22 21 20 20 23 28 27 30 31 30 28 34 37 37 38 38 38 37 36 37 39 38 39 40 36 33 33 35 33 30 29 29 30 31 30 29 30 29 28 27 26 25 25 24 24
12 13 20 20 18 20 23 27 22 25 21 19 21 26 31 32 31 29 33 37 35 34 38 38 39 41 39 40 40 40 41 39 39 39 38 38 38 36 34 33 31 31 32 30 29 29 29 27 27 26 26 26 25 25
16 24 25 29 26 25 28 28 29 29 27 28 28 28 30 32 31 30 27 38 35 39 38 38 41 36 35 35 37 38 38 40 40 39 40 39 38 36 37 34 33 35 32 31 31 30 29 28 27 26 27 28 27 26
15 24 27 29 33 27 30 30 30 27 32 35 30 29 31 35 30 31 27 34 40 40 39 43 43 39 37 40 39 39 39 37 35 35 34 39 39 37 35 38 36 34 36 33 30 30 30 29 28 27 28 28 26 26
23 32 29 34 32 27 33 29 33 31 35 33 33 36 37 33 28 25 32 37 41 39 39 38 37 39 39 41 38 37 35 39 37 35 34 35 36 36 37 36 36 32 33 31 30 31 30 29 28 26 28 27 26 27
27 31 31 31 31 31 31 32 33 34 35 33 37 35 34 29 30 30 34 36 36 36 36 36 37 37 37 38 39 38 37 35 32 30 32 30 30 31 32 33 33 30 30 30 31 31 30 28 26 28 28 27 26 26
31 30 29 32 33 33 35 37 34 32 35 36 35 32 30 27 27 30 30 31 32 33 34 36 39 39 40 38 38 36 34 31 30 30 29 28 28 28 31 31 30 22 26 27 26 25 24 25 25 26 27 28 28 27
32 31 30 33 33 33 34 33 34 36 35 35 32 32 32 31 31 31 31 31 36 35 37 38 37 41 39 37 34 33 32 31 30 30 30 32 32 32 30 29 28 28 28 28 24 22 25 26 27 28 28 29 29 29
37 42 33 35 34 34 37 41 40 41 39 38 40 39 37 36 36 39 36 37 36 37 37 37 38 36 35 33 33 33 32 33 33 30 30 30 30 30 30 30 31 31 31 30 28 28 25 29 30 33 32 33 34 34
55 48 42 44 41 44 48 53 53 50 49 48 48 42 41 42 39 43 39 39 38 39 36 36 35 33 32 31 31 31 32 33 33 33 32 32 32 31 32 33 34 34 33 32 32 33 34 35 36 36 37 38 39 38
50 48 43 41 43 48 52 51 54 48 51 48 44 52 44 43 40 39 38 37 37 35 33 33 35 35 36 38 37 37 35 39 42 42 42 40 41 39 38 41 41 39 35 35 35 35 36 36 37 37 38 40 40 41
56 56 56 51 47 45 50 49 49 47 49 49 48 53 52 46 38 38 44 45 37 34 35 35 39 44 40 41 42 45 43 47 46 34 30 29 34 37 46 46 41 38 37 37 38 37 38 38 39 40 41 41 42 44